sat.trackr.live / text

‹ back to catalog

STARLINK-35431

NORAD 66030 · 2025-232AB

PAYLOAD ACTIVE UNKNOWN

§ Identity

Operator
Country
US
Launch date
2025-10-16
Launch site
AFETR
Launch vehicle
Mass (kg)
RCS (m²)

Purposes: comms

External: N2YO · Heavens-Above · Gunter

§ Orbital elements

Epoch: 2026-05-25T04:00:03.998880Z

Period
94.11 min
Inclination
53.1577°
Eccentricity
0.0001391
Mean motion
15.30193934 rev/d
Perigee alt
474.3 km
Apogee alt
476.2 km
Semi-major
6,853.4 km
B*
-1.1904e-4
RAAN
108.8477°
Arg perigee
90.0996°
Mean anomaly
212.6255°
Rev number
585

§ Raw data

STARLINK-354311 66030U 25232AB  26145.16671295 -.00003882  00000+0 -11904-3 0  99942 66030  53.1577 108.8477 0001391  90.0996 212.6255 15.30193934  5856

JSON: /api/v1/satellites/66030 · /tle

For live sub-satellite position, see the globe view (requires WebGL).

§ Visibility from observer

Set your observer location to see the next 7 days of passes ≥ 10°. The values pass through the URL so the page stays shareable.

No JS? Fill the form by hand. The geolocation button needs JavaScript.